[[{"header":{"parameterUnit":"m.s-1","parameterCategory":1,"la1":30.2991,"la2":30.254,"lo1":-89.0895,"lo2":-89.0444,"dy":0.0017,"dx":0.0017,"nx":28,"ny":28,"refTime":"2024-04-15T21:00:00:Z","depth":0,"parameterNumber":2,"parameterNumberName":"U-component_of_WINDS"},"data":[0,0,0,0,0,0,0,0,0,0,0,0,0,0,0,0,0,0,0,0,0,0,0,0,0,0,0,0,0,0,0,0,0,0,0,0,0,0,0,0,0,0,0,0,0,0,0,0,0,0,0,0,0,0,0,0,0,0,-2.222,-2.222,0,-2.222,-2.222,-2.222,-2.2209,-2.2208,-2.2208,-2.2208,-2.2208,-2.2209,-2.2209,0,0,0,0,0,0,0,0,0,0,0,0,0,-2.221,-2.221,-2.222,-2.222,-2.222,-2.222,-2.222,-2.222,-2.2209,-2.2208,-2.2208,-2.2208,-2.2208,-2.2209,-2.2209,0,0,0,0,0,0,0,0,0,0,0,0,0,-2.2212,-2.221,-2.222,-2.2214,-2.2214,-2.222,-2.222,-2.222,-2.2209,-2.2208,-2.2208,-2.2208,-2.2208,-2.2208,-2.2209,-2.222,0,0,-2.221,-2.221,0,0,0,0,0,0,0,0,-2.2212,-2.2213,-2.2215,-2.2215,-2.2214,-2.2214,-2.2216,-2.222,-2.2209,-2.2211,-2.2208,-2.2207,-2.221,-2.2211,-2.2212,-2.222,-2.222,-2.221,-2.221,-2.2211,-2.2211,0,0,0,0,0,0,0,-2.2212,-2.2213,-2.222,-2.2215,-2.2214,-2.2212,-2.2211,-2.2217,-2.2213,-2.2211,-2.221,-2.221,-2.221,-2.2211,-2.2212,-2.222,-2.221,-2.2211,-2.2211,-2.2211,-2.2236,-2.2236,0,0,0,0,0,0,-2.2212,-2.2212,-2.222,-2.222,-2.2212,-2.2212,-2.2212,-2.2214,-2.2213,-2.2212,-2.221,-2.2209,-2.2211,-2.2211,-2.2211,-2.2223,-2.2211,-2.2211,-2.2211,-2.2236,-2.2236,-2.2237,0,0,0,0,0,0,-2.2212,-2.2213,-2.222,-2.2216,-2.2216,-2.2213,-2.2215,-2.2214,-2.2216,-2.2213,-2.2212,-2.2212,-2.221,-2.2211,-2.2218,-2.2223,-2.2211,-2.2212,-2.2235,-2.2236,-2.2236,-2.2248,0,0,0,0,0,0,-2.2212,-2.2213,-2.2218,-2.2216,-2.2217,-2.2226,-2.2216,-2.2215,-2.2216,-2.2215,-2.2214,-2.2214,-2.221,-2.2217,-2.2218,-2.2224,-2.2212,-2.2235,-2.2235,-2.2236,-2.2247,-2.2249,-2.2251,0,0,0,0,0,-2.2212,-2.2221,-2.2218,-2.2219,-2.2222,-2.2226,-2.2227,-2.2222,-2.2217,-2.2221,-2.2219,-2.2214,-2.2223,-2.2218,-2.2219,-2.2225,-2.2234,-2.2235,-2.2236,-2.2246,-2.2249,-2.225,0,0,0,0,0,0,-2.2224,-2.2221,-2.2217,-2.2227,-2.2227,-2.2224,-2.223,-2.2225,-2.2227,-2.2226,-2.222,-2.222,-2.2227,-2.2227,-2.2222,-2.2235,-2.2227,-2.2229,-2.2235,-2.2237,-2.2239,-2.2238,-2.2212,0,0,0,0,0,-2.2228,-2.2232,-2.2229,-2.2237,-2.2237,-2.2233,-2.2235,-2.2232,-2.2232,-2.2232,-2.223,-2.223,-2.2233,-2.2235,-2.2237,-2.2247,-2.2246,-2.2251,-2.2253,-2.2255,-2.2256,-2.2259,-2.2261,-2.224,-2.224,-2.224,0,0,-2.2236,-2.2235,-2.2237,-2.224,-2.2239,-2.2243,-2.2234,-2.2238,-2.2241,-2.2232,-2.2238,-2.2237,-2.2237,-2.2245,-2.2248,-2.2244,-2.2261,-2.2256,-2.2257,-2.2257,-2.2261,-2.2263,-2.2264,-2.224,-2.224,-2.224,0,0,-2.2252,-2.2252,-2.2258,-2.2258,-2.2257,-2.2254,-2.2256,-2.2254,-2.2253,-2.2259,-2.2252,-2.2255,-2.226,-2.226,-2.226,-2.2275,-2.227,-2.2276,-2.2285,-2.2289,-2.229,-2.2292,-2.2296,-2.2298,-2.2277,-2.2277,-2.2277,0,-2.2262,-2.2267,-2.2262,-2.2267,-2.2267,-2.226,-2.2266,-2.2266,-2.2266,-2.2267,-2.2262,-2.2268,-2.2267,-2.2274,-2.2278,-2.2279,-2.228,-2.2276,-2.2291,-2.2292,-2.2293,-2.2297,-2.2299,-2.2278,-2.2278,-2.2278,-2.2278,0,-2.2279,-2.2283,-2.2288,-2.2288,-2.2289,-2.2295,-2.229,-2.2292,-2.2288,-2.2285,-2.2291,-2.229,-2.2291,-2.2293,-2.2289,-2.2299,-2.2296,-2.2292,-2.2284,-2.2296,-2.23,-2.2302,-2.2279,-2.2279,-2.2278,-2.2278,0,0,-2.2304,-2.23,-2.2302,-2.2301,-2.2299,-2.2302,-2.2307,-2.2308,-2.2309,-2.2309,-2.2313,-2.2316,-2.2311,-2.2312,-2.2308,-2.2312,-2.2322,-2.2306,-2.2306,-2.2309,-2.2332,-2.2335,-2.2337,-2.2319,-2.2319,-2.232,-2.2332,0,-2.2319,-2.2326,-2.2321,-2.233,-2.2332,-2.2324,-2.2328,-2.2327,-2.2325,-2.2327,-2.2324,-2.2326,-2.232,-2.232,-2.2323,-2.232,-2.2327,-2.232,-2.2322,-2.2322,-2.2321,-2.2339,-2.2343,-2.2355,-2.2333,-2.2333,-2.2334,0,-2.2338,-2.2338,-2.2346,-2.2343,-2.2344,-2.2347,-2.2347,-2.2349,-2.2348,-2.2346,-2.2346,-2.2341,-2.2344,-2.2337,-2.2342,-2.2337,-2.2337,-2.2336,-2.2336,-2.2336,-2.2328,-2.2339,-2.2358,-2.236,-2.2336,-2.2336,-2.2336,0,-2.2354,-2.2356,-2.2361,-2.2361,-2.2357,-2.236,-2.2358,-2.2356,-2.2357,-2.2357,-2.2357,-2.2358,-2.2358,-2.2358,-2.2353,-2.2349,-2.2358,-2.2351,-2.2356,-2.2356,-2.2358,-2.2358,-2.2378,-2.236,-2.236,-2.2359,-2.2359,0,-2.2371,-2.2376,-2.2368,-2.2371,-2.2377,-2.2371,-2.2376,-2.2374,-2.2372,-2.2374,-2.2367,-2.2369,-2.2363,-2.2364,-2.2361,-2.2364,-2.2365,-2.2363,-2.2362,-2.2363,-2.2363,-2.2363,-2.2362,-2.236,-2.236,-2.236,-2.236,0,-2.239,-2.2385,-2.239,-2.2385,-2.2384,-2.2388,-2.2385,-2.2387,-2.2384,-2.2386,-2.2387,-2.2381,-2.2382,-2.2377,-2.2378,-2.2375,-2.2381,-2.2379,-2.2381,-2.238,-2.2386,-2.2385,-2.2405,-2.2407,-2.2389,-2.2389,-2.2389,0,-2.2401,-2.2405,-2.24,-2.2401,-2.24,-2.2401,-2.2402,-2.2395,-2.2396,-2.2394,-2.2396,-2.2396,-2.2396,-2.2398,-2.2395,-2.2395,-2.2392,-2.2399,-2.2392,-2.2393,-2.2391,-2.2391,-2.2391,-2.24,-2.2401,-2.2401,-2.2401,0,-2.2421,-2.2418,-2.2419,-2.2418,-2.2418,-2.2418,-2.2416,-2.2417,-2.241,-2.2411,-2.2412,-2.2412,-2.2412,-2.2412,-2.2411,-2.2409,-2.2404,-2.2403,-2.2404,-2.2406,-2.2407,-2.2405,-2.2385,-2.2403,-2.2403,-2.2402,-2.2402,-2.2402,-2.2436,-2.2439,-2.2436,-2.2436,-2.2434,-2.2433,-2.2435,-2.2431,-2.2431,-2.243,-2.2427,-2.2428,-2.2425,-2.2423,-2.2422,-2.2422,-2.2419,-2.2421,-2.2421,-2.2421,-2.2422,-2.2407,-2.2422,-2.2422,-2.2422,-2.2422,-2.2422,0,-2.2455,-2.2453,-2.2453,-2.2451,-2.2451,-2.2446,-2.2444,-2.2444,-2.2445,-2.2443,-2.2443,-2.2443,-2.2443,-2.2438,-2.2438,-2.2439,-2.2436,-2.2439,-2.2438,-2.2438,-2.2426,-2.2424,-2.2441,-2.2441,-2.2441,-2.2441,-2.2441,-2.2441,-2.2465,-2.2469,-2.2465,-2.2467,-2.2464,-2.2465,-2.2464,-2.2463,-2.2461,-2.2461,-2.2461,-2.2458,-2.2455,-2.2453,-2.2453,-2.2451,-2.2451,-2.2454,-2.2452,-2.2441,-2.2439,-2.2437,-2.2436,-2.2455,-2.2455,-2.2464,-2.2465,-2.2465]},{"header":{"parameterUnit":"m.s-1","parameterCategory":1,"la1":30.2991,"la2":30.254,"lo1":-89.0895,"lo2":-89.0444,"dy":0.0017,"dx":0.0017,"nx":28,"ny":28,"refTime":"2024-04-15T21:00:00:Z","depth":0,"parameterNumber":3,"parameterNumberName":"V-component_of_WINDS"},"data":[0,0,0,0,0,0,0,0,0,0,0,0,0,0,0,0,0,0,0,0,0,0,0,0,0,0,0,0,0,0,0,0,0,0,0,0,0,0,0,0,0,0,0,0,0,0,0,0,0,0,0,0,0,0,0,0,0,0,2.2849,2.2849,0,2.2801,2.2801,2.28,2.2763,2.2763,2.2763,2.2762,2.271,2.2709,2.2708,0,0,0,0,0,0,0,0,0,0,0,0,0,2.2907,2.2906,2.2849,2.2849,2.2848,2.2801,2.2801,2.28,2.2763,2.2763,2.2763,2.2762,2.2711,2.2709,2.2708,0,0,0,0,0,0,0,0,0,0,0,0,0,2.2873,2.2906,2.2849,2.2824,2.2822,2.2802,2.2801,2.28,2.2764,2.2763,2.2763,2.2762,2.2711,2.2709,2.2708,2.2708,0,0,2.2703,2.2702,0,0,0,0,0,0,0,0,2.2875,2.2871,2.2829,2.2826,2.2823,2.2788,2.2802,2.2769,2.2764,2.2786,2.2762,2.2762,2.2736,2.2733,2.2725,2.2705,2.2703,2.2703,2.2702,2.2701,2.2701,0,0,0,0,0,0,0,2.2877,2.2872,2.283,2.2828,2.2825,2.2815,2.2809,2.2795,2.2764,2.2784,2.2781,2.2776,2.2735,2.2726,2.2723,2.2702,2.2703,2.2701,2.27,2.27,2.2682,2.2682,0,0,0,0,0,0,2.2884,2.2875,2.2832,2.2829,2.2848,2.2814,2.2808,2.28,2.2764,2.2758,2.2776,2.2774,2.2729,2.2725,2.2721,2.2719,2.2701,2.27,2.2699,2.2681,2.2682,2.2682,0,0,0,0,0,0,2.2885,2.288,2.2834,2.2851,2.2844,2.2814,2.2804,2.2799,2.2791,2.2759,2.2753,2.2774,2.2729,2.2723,2.2712,2.2717,2.2699,2.2697,2.2681,2.2681,2.2682,2.2716,0,0,0,0,0,0,2.2887,2.2881,2.2881,2.2851,2.2844,2.2826,2.2805,2.2798,2.2788,2.2785,2.2755,2.2749,2.2728,2.2714,2.271,2.2715,2.2696,2.268,2.2681,2.2682,2.2714,2.2718,2.2721,0,0,0,0,0,2.2889,2.2892,2.2882,2.2877,2.2843,2.2826,2.2822,2.2798,2.2789,2.2788,2.2768,2.275,2.2717,2.2714,2.2709,2.2712,2.2679,2.2681,2.2682,2.2713,2.2717,2.2721,0,0,0,0,0,0,2.2922,2.2888,2.2876,2.2869,2.2851,2.282,2.2819,2.2803,2.2787,2.2785,2.2755,2.2749,2.274,2.2725,2.2722,2.2711,2.2696,2.2696,2.2721,2.2725,2.2728,2.2732,2.2695,0,0,0,0,0,2.2929,2.2919,2.2889,2.2886,2.2878,2.285,2.2842,2.2825,2.2805,2.2797,2.2776,2.2756,2.2742,2.2732,2.2717,2.2712,2.2705,2.2712,2.2715,2.2718,2.2718,2.2715,2.2718,2.2686,2.2686,2.2686,0,0,2.2942,2.2922,2.2917,2.2892,2.2876,2.2866,2.2844,2.2834,2.2826,2.2795,2.2784,2.2767,2.2743,2.2735,2.2731,2.2722,2.2726,2.2719,2.2722,2.2721,2.2717,2.272,2.2722,2.2687,2.2686,2.2686,0,0,2.2962,2.2945,2.2941,2.2926,2.2903,2.2885,2.2884,2.2856,2.2844,2.2832,2.281,2.2799,2.2774,2.2758,2.2747,2.2761,2.2744,2.2757,2.2774,2.2771,2.2774,2.2776,2.2782,2.2784,2.2757,2.2758,2.2758,0,2.2981,2.2965,2.2941,2.2933,2.2922,2.2895,2.2891,2.2877,2.285,2.2843,2.2834,2.2803,2.2785,2.2773,2.2777,2.2768,2.2766,2.276,2.2776,2.2777,2.2779,2.2784,2.2786,2.2759,2.2759,2.2759,2.2759,0,2.2991,2.298,2.298,2.2955,2.2945,2.2938,2.2913,2.2904,2.2889,2.2872,2.286,2.2837,2.2817,2.2813,2.2797,2.2799,2.2795,2.2781,2.2766,2.2784,2.2789,2.279,2.2762,2.2761,2.2761,2.276,0,0,2.3029,2.2992,2.2993,2.2982,2.2954,2.2945,2.2938,2.2919,2.2913,2.2895,2.2888,2.2868,2.2855,2.2843,2.2825,2.2822,2.2836,2.2809,2.2808,2.2815,2.2837,2.2848,2.2851,2.2824,2.2824,2.2825,2.2839,0,2.3045,2.3031,2.3009,2.3002,2.2992,2.2966,2.296,2.2942,2.2925,2.2914,2.2895,2.2882,2.2866,2.2859,2.2855,2.2835,2.284,2.2833,2.2817,2.2817,2.2825,2.2853,2.2864,2.2879,2.2841,2.2841,2.2841,0,2.3061,2.3046,2.3038,2.3012,2.3007,2.3002,2.2984,2.2973,2.2952,2.2941,2.2927,2.2908,2.2898,2.2884,2.287,2.2867,2.2858,2.2848,2.2847,2.2845,2.2831,2.2852,2.2883,2.2886,2.2843,2.2843,2.2843,0,2.3091,2.3068,2.3061,2.3052,2.3022,2.3019,2.3006,2.2984,2.2975,2.2959,2.2952,2.2934,2.2925,2.2911,2.2888,2.288,2.2877,2.2861,2.2867,2.2867,2.2867,2.2868,2.2899,2.2861,2.2861,2.2861,2.2861,0,2.3111,2.3107,2.3074,2.307,2.3065,2.304,2.3035,2.302,2.3001,2.2993,2.2969,2.2962,2.2931,2.292,2.2901,2.2893,2.2888,2.2879,2.2874,2.2881,2.2883,2.2876,2.2874,2.2862,2.2862,2.2862,2.2862,0,2.3144,2.3122,2.3112,2.3084,2.3077,2.3075,2.3051,2.3045,2.3028,2.3018,2.3014,2.2986,2.2972,2.2947,2.2925,2.2913,2.2908,2.2899,2.2916,2.2913,2.2921,2.2921,2.2949,2.2951,2.2912,2.2912,2.2913,0,2.3158,2.3155,2.3128,2.3121,2.3109,2.3098,2.3089,2.3064,2.3055,2.3031,2.3029,2.3013,2.2999,2.2977,2.2955,2.2938,2.2929,2.294,2.2926,2.2934,2.293,2.2931,2.2931,2.2943,2.2944,2.2944,2.2945,0,2.3187,2.3176,2.3164,2.3148,2.3138,2.3124,2.3109,2.3104,2.3075,2.3067,2.3052,2.3042,2.302,2.3005,2.2985,2.2971,2.2953,2.2949,2.295,2.2958,2.2968,2.2963,2.2925,2.2949,2.2948,2.2948,2.2948,2.2948,2.3211,2.3208,2.3188,2.3175,2.3162,2.3148,2.3142,2.3124,2.3112,2.3093,2.3079,2.3066,2.3045,2.3017,2.3004,2.2993,2.2985,2.2986,2.2986,2.2987,2.299,2.2969,2.2989,2.2989,2.2989,2.2989,2.2989,0,2.3239,2.3226,2.3214,2.3194,2.3185,2.3169,2.3152,2.3144,2.3134,2.3116,2.3104,2.3088,2.3073,2.3049,2.3033,2.3028,2.302,2.3025,2.3025,2.3022,2.2998,2.3,2.3032,2.3032,2.3032,2.3032,2.3032,2.3032,2.3253,2.3246,2.3233,2.322,2.3205,2.3193,2.3185,2.3172,2.3158,2.3142,2.313,2.3115,2.3095,2.3077,2.3063,2.3056,2.3051,2.3059,2.305,2.3028,2.3024,2.302,2.3021,2.3058,2.3058,2.3076,2.3076,2.3076]}]]